Location: B?jaj?g
(11.7167°N, 92.6667°E)
Time: 03:52:05
(UTC+00:00)

Meteor 2-20 - Pass Details

Date: 18 September 2020
Orbit: 938 x 959 km, 82.5° (Epoch: 18 October)

Event Time Altitude Azimuth Distance (km) Brightness Sun altitude
Rises 22:36:27 0° 187° (S) 3,631 7.4 -16.0°
Reaches altitude 10° 22:38:58 10° 189° (S) 2,684 6.7 -15.4°
Maximum altitude 22:45:06 76° 274° (W) 984 4.4 -13.9°
Drops below altitude 10° 22:51:13 10° 360° (N) 2,675 6.9 -12.4°
Sets 22:53:42 0° 2° (N) 3,617 7.6 -11.8°
